This is the latest recevied weather packets stored in our database for station/object HB9TJM-8. If no packets are shown the sender has not sent any weather packets the latest 10 day(s).
| Time | Temp. | Humidity | Pressure | Rain* | Wind** | Luminosity | Snow |
|---|---|---|---|---|---|---|---|
| 1777876734 | 10.56° C | 83% | 1015 hPa | 0 mm | - | 166 W/m² | - |
| 1777876427 | 10° C | 85% | 1014.9 hPa | 0 mm | - | 132 W/m² | - |
| 1777876119 | 10° C | 84% | 1015.2 hPa | 0 mm | - | 111 W/m² | - |
| 1777875812 | 10° C | 85% | 1015.8 hPa | 0 mm | - | 120 W/m² | - |
| 1777875504 | 9.44° C | 87% | 1015.4 hPa | 0 mm | - | 116 W/m² | - |
| 1777875197 | 9.44° C | 86% | 1015.5 hPa | 0 mm | - | 104 W/m² | - |
| 1777874889 | 9.44° C | 88% | 1015.4 hPa | 0 mm | - | 84 W/m² | - |
| 1777874582 | 9.44° C | 87% | 1015.3 hPa | 0 mm | - | 60 W/m² | - |
| 1777874275 | 9.44° C | 88% | 1015.1 hPa | 0 mm | - | 45 W/m² | - |
| 1777873967 | 9.44° C | 85% | 1015.4 hPa | 0 mm | - | 44 W/m² | - |
| 1777873661 | 9.44° C | 85% | 1015.5 hPa | 0 mm | - | 38 W/m² | - |
| 1777873352 | 8.89° C | 87% | 1015 hPa | 0 mm | - | 33 W/m² | - |
| 1777873045 | 8.89° C | 87% | 1015.4 hPa | 0 mm | - | 35 W/m² | - |
| 1777872738 | 8.89° C | 88% | 1015.4 hPa | 0 mm | - | 32 W/m² | - |
| 1777872430 | 8.89° C | 87% | 1015.1 hPa | 0 mm | - | 31 W/m² | - |
| 1777872122 | 8.89° C | 88% | 1014.7 hPa | 0 mm | - | 31 W/m² | - |
| 1777871815 | 8.89° C | 89% | 1015.4 hPa | 0 mm | - | 28 W/m² | - |
| 1777871508 | 8.89° C | 85% | 1015.3 hPa | 0 mm | - | 25 W/m² | - |
| 1777871200 | 8.89° C | 86% | 1014.6 hPa | 0 mm | - | 24 W/m² | - |
| 1777870893 | 8.89° C | 84% | 1015.3 hPa | 0 mm | - | 21 W/m² | - |
| 1777870585 | 9.44° C | 85% | 1015.6 hPa | 0 mm | - | 17 W/m² | - |
| 1777870278 | 8.89° C | 85% | 1015.5 hPa | 0 mm | - | 14 W/m² | - |
| 1777869970 | 8.89° C | 85% | 1015.1 hPa | 0 mm | - | 10 W/m² | - |
| 1777869663 | 9.44° C | 83% | 1015.3 hPa | 0 mm | - | 6 W/m² | - |
| 1777869356 | 9.44° C | 82% | 1015.2 hPa | 0.25 mm | - | 4 W/m² | - |
* Rain latest hour (hover to see other rain measurements)
** Current wind speed in m/s (hover to see current wind gust speed)